Humidity-temperature Sensor

Selected Measurement Type: Relative Humidity

 
Relative Humidity [%]     6 entries per hour
Showing data from 7/26/2014 (00:00:00 Z) to 7/23/2014 (00:01:00 Z)
Previous Next [ Day | 3-Days | 7-Days ]
First Last
Prev [ Day | 3-Days | 7-Days ] Next
First Last

Start Time:     :
End Time:     :     
Time (in GMT) :00 :50 :40 :30 :20 :10
Previous Next [ Day | 3-Days | 7-Days ]
First Last
Prev [ Day | 3-Days | 7-Days ] Next
First Last


123 => good data
MM => data is determined as missing
-- => data not received/configured
Back to Top Back to Top
7/26/2014 00:00 to 23:10 87.72 87.30 87.91 87.76 87.16 87.64
7/25/2014 23:00 to 22:10 87.89 87.64 87.80 87.50 87.56 87.00
7/25/2014 22:00 to 21:10 86.94 86.96 87.70 87.72 86.63 86.94
7/25/2014 21:00 to 20:10 86.69 86.83 86.43 87.04 86.81 87.24
7/25/2014 20:00 to 19:10 86.85 85.97 86.01 86.29 86.21 86.17
7/25/2014 19:00 to 18:10 85.78 86.15 85.42 85.02 85.42 85.48
7/25/2014 18:00 to 17:10 85.84 85.92 85.88 86.01 85.28 85.42
7/25/2014 17:00 to 16:10 85.58 85.14 85.16 86.17 84.81 83.86
7/25/2014 16:00 to 15:10 84.13 84.83 84.13 84.23 84.33 84.71
7/25/2014 15:00 to 14:10 84.55 84.49 83.24 83.36 83.86 83.80
7/25/2014 14:00 to 13:10 83.22 83.09 83.01 83.44 84.89 84.95
7/25/2014 13:00 to 12:10 87.04 88.19 87.40 87.46 86.67 85.97
7/25/2014 12:00 to 11:10 85.10 86.53 88.37 88.59 88.86 89.50
7/25/2014 11:00 to 10:10 89.79 90.33 90.17 89.06 89.87 89.81
7/25/2014 10:00 to 9:10 88.25 87.85 86.37 86.33 87.04 86.63
7/25/2014 09:00 to 8:10 86.92 89.14 89.10 88.07 88.15 88.41
7/25/2014 08:00 to 7:10 87.70 89.89 89.71 89.34 89.38 89.40
7/25/2014 07:00 to 6:10 89.10 89.89 92.31 93.12 94.31 95.18
7/25/2014 06:00 to 5:10 95.73 95.89 95.61 96.68 96.66 96.60
7/25/2014 05:00 to 4:10 96.22 95.26 92.66 93.06 91.42 89.97
7/25/2014 04:00 to 3:10 88.59 88.53 89.83 90.25 91.20 90.74
7/25/2014 03:00 to 2:10 89.79 88.78 89.44 89.16 89.08 88.80
7/25/2014 02:00 to 1:10 88.92 88.23 88.84 89.36 89.24 88.90
7/25/2014 01:00 to 0:10 88.76 88.67 89.44 89.12 89.24 88.51
7/25/2014 00:00 to 23:10 88.25 88.23 87.72 87.93 88.61 88.35
7/24/2014 23:00 to 22:10 89.02 89.30 88.76 88.47 88.69 88.51
7/24/2014 22:00 to 21:10 88.86 89.10 89.00 89.91 89.81 89.48
7/24/2014 21:00 to 20:10 89.52 91.00 90.13 88.59 89.04 89.02
7/24/2014 20:00 to 19:10 88.65 88.23 88.53 88.39 88.45 88.69
7/24/2014 19:00 to 18:10 89.14 89.28 89.20 88.57 88.29 88.96
7/24/2014 18:00 to 17:10 88.96 89.81 90.13 90.07 90.11 90.07
7/24/2014 17:00 to 16:10 89.83 89.42 89.32 89.06 88.53 88.86
7/24/2014 16:00 to 15:10 89.20 88.94 88.71 88.69 88.35 88.39
7/24/2014 15:00 to 14:10 88.43 88.57 88.67 88.25 88.13 88.17
7/24/2014 14:00 to 13:10 88.01 87.78 87.64 87.56 87.78 87.70
7/24/2014 13:00 to 12:10 88.33 88.86 89.16 89.40 89.58 89.56
7/24/2014 12:00 to 11:10 89.54 89.58 89.62 89.26 89.02 88.90
7/24/2014 11:00 to 10:10 88.76 88.82 88.05 88.17 88.59 88.51
7/24/2014 10:00 to 9:10 88.07 88.05 88.63 88.90 89.08 89.34
7/24/2014 09:00 to 8:10 89.10 89.20 89.60 89.52 88.76 88.88
7/24/2014 08:00 to 7:10 88.49 88.55 88.07 88.01 87.89 88.07
7/24/2014 07:00 to 6:10 88.37 88.71 89.06 89.16 88.90 88.88
7/24/2014 06:00 to 5:10 88.69 88.21 88.15 88.03 87.91 87.93
7/24/2014 05:00 to 4:10 87.34 87.20 87.62 86.87 85.99 85.88
7/24/2014 04:00 to 3:10 86.27 85.97 86.19 86.55 86.11 86.21
7/24/2014 03:00 to 2:10 86.37 86.75 87.83 87.70 87.87 87.68
7/24/2014 02:00 to 1:10 87.54 87.22 87.32 87.28 86.87 87.20
7/24/2014 01:00 to 0:10 86.41 86.45 86.29 87.52 87.38 86.47
7/24/2014 00:00 to 23:10 85.84 85.86 85.46 85.64 85.20 85.16
7/23/2014 23:00 to 22:10 85.92 86.25 85.88 86.07 85.52 85.32
7/23/2014 22:00 to 21:10 86.35 86.67 86.37 86.39 85.99 88.90
7/23/2014 21:00 to 20:10 91.04 89.50 87.83 87.14 88.07 87.91
7/23/2014 20:00 to 19:10 89.81 90.98 91.75 92.88 91.99 86.31
7/23/2014 19:00 to 18:10 86.51 86.45 84.65 84.93 85.60 87.72
7/23/2014 18:00 to 17:10 85.42 83.90 84.57 84.75 85.88 85.72
7/23/2014 17:00 to 16:10 86.31 87.99 86.92 85.22 84.57 84.06
7/23/2014 16:00 to 15:10 84.06 84.39 85.52 84.75 83.64 83.96
7/23/2014 15:00 to 14:10 -- -- -- -- -- --
7/23/2014 14:00 to 13:10 84.75 83.82 84.99 85.92 85.38 86.15
7/23/2014 13:00 to 12:10 85.72 85.26 86.35 86.35 86.94 86.59
7/23/2014 12:00 to 11:10 85.94 86.25 87.02 86.15 86.51 86.53
7/23/2014 11:00 to 10:10 86.23 86.21 85.90 85.52 84.69 85.06
7/23/2014 10:00 to 9:10 84.65 84.93 85.14 84.63 84.47 84.77
7/23/2014 09:00 to 8:10 85.62 85.68 83.76 84.53 83.76 84.06
7/23/2014 08:00 to 7:10 84.23 85.14 84.69 83.92 84.65 84.00
7/23/2014 07:00 to 6:10 84.21 83.74 84.45 82.73 84.06 83.52
7/23/2014 06:00 to 5:10 83.13 81.90 82.31 82.65 83.94 82.85
7/23/2014 05:00 to 4:10 81.88 82.31 81.96 81.68 81.80 82.31
7/23/2014 04:00 to 3:10 82.79 83.42 83.56 84.51 84.29 84.53
7/23/2014 03:00 to 2:10 85.62 85.68 86.98 86.41 85.82 84.47
7/23/2014 02:00 to 1:10 85.56 85.30 85.66 86.13 86.43 86.45
7/23/2014 01:00 to 0:10 86.79 86.01 85.72 85.58 84.81 84.81